DG2GG-6 Weather Reports


time (UTC)temp
F
wind
direction
speed
knots
gust
knots
rain 1hr
in
rain 24hr
in
rain mn
in
humidity
%
barometer
mb
20260506201205 45 271 0.9 2.6 0.00 0.29 0.28 94 1010.2
20260506200705 45 278 0.9 2.6 0.00 0.29 0.28 94 1010.2
20260506200205 45 236 0.9 2.6 0.00 0.29 0.28 94 1010.1
20260506195705 45 281 0.9 2.6 0.01 0.29 0.28 94 1010.1
20260506194706 45 262 0.9 3.5 0.01 0.29 0.28 94 1010.0
20260506194205 45 271 0.9 3.5 0.01 0.29 0.28 94 1010.0
20260506193705 45 290 0.9 1.7 0.01 0.29 0.28 94 1010.0
20260506193205 45 283 0.9 1.7 0.01 0.29 0.28 94 1010.0
20260506192707 45 271 0.9 1.7 0.01 0.29 0.28 94 1010.0
20260506192205 45 304 0.9 4.3 0.01 0.29 0.28 94 1009.7
20260506191704 45 298 0.9 4.3 0.01 0.29 0.28 94 1009.7
20260506191205 45 280 0.9 4.3 0.01 0.29 0.28 94 1009.7
20260506190705 45 271 0.9 2.6 0.01 0.29 0.28 94 1009.6
20260506190205 45 254 0.9 2.6 0.01 0.29 0.28 94 1009.6
20260506185705 45 277 0.9 4.3 0.00 0.28 0.28 93 1009.5
20260506184205 45 257 0.9 3.5 0.01 0.28 0.28 93 1009.4
20260506183705 45 227 0.9 1.7 0.01 0.29 0.28 93 1009.4
20260506182705 45 245 0.9 2.6 0.02 0.31 0.28 92 1009.3
20260506181705 46 250 2.6 5.2 0.02 0.31 0.28 91 1009.2
20260506181224 46 250 2.6 5.2 0.02 0.33 0.28 91 1009.2
20260506180706 46 237 1.7 4.3 0.02 0.34 0.28 91 1009.1
20260506180205 46 245 2.6 4.3 0.02 0.34 0.28 91 1009.1
20260506175705 46 221 2.6 4.3 0.01 0.33 0.27 91 1009.0
20260506174705 46 220 1.7 4.3 0.01 0.33 0.27 91 1008.9
20260506174205 46 240 1.7 6.1 0.02 0.33 0.27 91 1008.9
20260506172708 46 228 2.6 7.0 0.02 0.32 0.26 91 1008.7
20260506172205 46 261 2.6 7.0 0.02 0.32 0.26 91 1008.6
20260506171205 46 266 2.6 7.0 0.02 0.32 0.26 91 1008.4
20260506170706 46 243 2.6 7.0 0.02 0.32 0.26 91 1008.3
20260506165205 46 230 2.6 5.2 0.03 0.32 0.26 91 1008.3
20260506164706 46 221 1.7 5.2 0.03 0.32 0.26 91 1008.3
20260506164205 46 247 1.7 5.2 0.03 0.31 0.25 91 1008.3
20260506163705 46 221 1.7 6.1 0.04 0.31 0.25 91 1008.3
20260506162705 46 247 1.7 6.1 0.03 0.31 0.24 91 1008.3
20260506162216 46 228 1.7 3.5 0.04 0.31 0.24 91 1008.4
20260506161706 46 236 1.7 3.5 0.04 0.31 0.24 91 1008.3
20260506160705 46 249 1.7 6.1 0.04 0.30 0.24 91 1008.3
20260506160226 46 248 1.7 6.1 0.04 0.30 0.24 90 1008.3
20260506155705 46 230 1.7 3.5 0.03 0.29 0.23 90 1008.3
20260506155205 46 287 1.7 3.5 0.04 0.29 0.23 90 1008.4
20260506154706 46 263 1.7 3.5 0.03 0.28 0.22 90 1008.3
20260506154205 47 300 1.7 3.5 0.03 0.28 0.22 90 1008.3
20260506153704 47 262 1.7 3.5 0.03 0.28 0.21 89 1008.3
20260506153205 47 248 1.7 2.6 0.03 0.28 0.21 90 1008.3
20260506152705 47 283 0.9 2.6 0.03 0.28 0.21 90 1008.3
20260506152205 47 280 0.9 2.6 0.02 0.27 0.20 90 1008.2
20260506151705 47 299 0.9 2.6 0.02 0.27 0.20 90 1008.2
20260506151205 47 229 0.9 7.0 0.02 0.28 0.20 90 1008.2
20260506150705 47 307 1.7 7.8 0.02 0.30 0.20 90 1008.1
20260506150205 47 198 2.6 7.8 0.02 0.34 0.20 88 1008.2
20260506145705 47 288 2.6 7.8 0.02 0.34 0.20 88 1008.1
20260506145205 48 255 1.7 4.3 0.02 0.33 0.19 89 1008.1
20260506143205 48 256 2.6 4.3 0.01 0.32 0.18 88 1008.0
20260506142705 48 240 1.7 3.5 0.01 0.32 0.18 90 1008.0
20260506141705 48 269 1.7 4.3 0.02 0.32 0.18 89 1007.9
20260506141205 48 274 1.7 3.5 0.02 0.32 0.18 89 1007.9
20260506140205 48 274 0.9 5.2 0.01 0.31 0.17 90 1007.8
20260506135705 48 298 0.9 5.2 0.01 0.31 0.17 89 1007.8
20260506134705 48 207 1.7 8.7 0.01 0.31 0.17 89 1007.8
20260506134205 48 248 2.6 8.7 0.01 0.31 0.17 89 1007.8
20260506133705 48 199 3.5 11.3 0.01 0.31 0.17 89 1007.8
20260506133205 48 200 4.3 11.3 0.01 0.31 0.17 88 1007.9
20260506132205 49 225 4.3 9.6 0.01 0.31 0.17 89 1007.8
20260506131705 50 219 2.6 7.0 0.00 0.31 0.17 91 1007.7
20260506130705 50 312 3.5 7.8 0.01 0.31 0.17 90 1007.5
20260506130205 50 252 2.6 7.8 0.01 0.31 0.17 91 1007.5
20260506123705 50 231 1.7 3.5 0.02 0.31 0.17 91 1007.1
20260506123205 50 243 1.7 4.3 0.02 0.31 0.17 91 1007.0
20260506122705 50 248 1.7 6.1 0.02 0.31 0.17 92 1007.1
20260506122205 50 220 2.6 6.1 0.02 0.31 0.17 92 1007.1
20260506121705 50 190 2.6 6.1 0.02 0.31 0.17 91 1007.0
20260506121205 51 188 1.7 6.1 0.02 0.31 0.17 92 1007.0
20260506115205 51 273 2.6 4.3 0.02 0.30 0.16 92 1006.8
20260506114705 51 321 1.7 4.3 0.03 0.30 0.16 94 1006.9
20260506114205 51 279 1.7 4.3 0.02 0.29 0.15 93 1006.8
20260506113705 51 271 1.7 4.3 0.02 0.28 0.14 93 1006.8
20260506113205 51 272 1.7 3.5 0.02 0.28 0.14 93 1006.8
20260506112705 51 293 0.9 5.2 0.07 0.28 0.14 93 1006.8
20260506112205 51 279 1.7 5.2 0.13 0.28 0.14 93 1006.7
20260506111705 51 295 1.7 6.1 0.14 0.28 0.14 93 1006.8
20260506111205 51 266 2.6 6.1 0.14 0.28 0.14 93 1006.8
20260506110705 51 331 3.5 6.1 0.14 0.28 0.14 93 1006.8
20260506110206 51 262 3.5 6.1 0.14 0.28 0.14 92 1006.9
20260506105705 51 296 2.6 7.0 0.13 0.28 0.13 92 1006.8
20260506105205 51 282 3.5 7.0 0.13 0.27 0.13 92 1006.9
20260506104706 51 297 3.5 7.0 0.13 0.27 0.13 92 1006.8
20260506103705 51 313 1.7 6.1 0.13 0.27 0.13 91 1006.9
20260506103205 52 294 1.7 6.1 0.11 0.25 0.11 88 1006.8
20260506102705 52 234 2.6 6.1 0.06 0.20 0.06 88 1006.8
20260506102205 53 244 2.6 6.1 0.00 0.14 0.00 87 1006.8
20260506101705 54 236 2.6 6.1 0.00 0.14 0.00 86 1006.7
20260506101205 55 264 3.5 6.1 0.00 0.14 0.00 84 1006.7
20260506100705 56 354 2.6 6.1 0.00 0.14 0.00 81 1006.6
20260506100235 57 311 0.9 2.6 0.00 0.14 0.00 77 1006.6
20260506095705 56 180 0.9 2.6 0.00 0.14 0.00 77 1006.6
20260506094706 56 167 0.0 1.7 0.00 0.14 0.00 77 1006.6
20260506094205 56 134 0.0 0.9 0.00 0.14 0.00 77 1006.6
20260506093705 56 134 0.0 0.0 0.00 0.14 0.00 74 1006.5
20260506092705 56 134 0.0 0.9 0.00 0.14 0.00 73 1006.6
20260506092205 56 134 0.0 0.9 0.00 0.14 0.00 73 1006.6
20260506091705 56 134 0.0 0.9 0.00 0.14 0.00 75 1006.6
20260506091205 56 134 0.0 0.9 0.00 0.14 0.00 76 1006.7
20260506090705 56 134 0.0 1.7 0.00 0.14 0.00 74 1006.6
20260506090205 56 147 0.0 1.7 0.00 0.14 0.00 73 1006.6
20260506085705 56 147 0.0 1.7 0.00 0.14 0.00 76 1006.6
20260506085205 56 133 0.0 1.7 0.00 0.14 0.00 78 1006.6
20260506084705 56 162 0.0 1.7 0.00 0.14 0.00 80 1006.6
20260506084205 55 180 0.9 1.7 0.00 0.14 0.00 80 1006.6
20260506083705 55 117 0.9 1.7 0.00 0.14 0.00 79 1006.5
20260506083205 55 189 0.0 2.6 0.00 0.14 0.00 82 1006.4
20260506082705 54 180 0.9 2.6 0.00 0.14 0.00 82 1006.3
20260506082205 54 180 0.9 2.6 0.00 0.14 0.00 83 1006.4
20260506081705 54 155 0.9 2.6 0.00 0.14 0.00 87 1006.3
20260506081205 53 176 0.0 1.7 0.00 0.14 0.00 87 1006.3
20260506080706 53 127 0.0 1.7 0.00 0.14 0.00 87 1006.4
20260506080205 52 95 0.0 1.7 0.00 0.14 0.00 88 1006.4
20260506073205 50 95 0.0 0.9 0.00 0.14 0.00 96 1006.6
20260506072705 49 95 0.0 0.9 0.00 0.14 0.00 97 1006.6
20260506072205 49 95 0.0 0.9 0.00 0.14 0.00 97 1006.6
20260506071705 49 67 0.0 0.0 0.00 0.14 0.00 97 1006.6
20260506071205 48 66 0.0 0.0 0.00 0.14 0.00 97 1006.6
20260506070705 48 66 0.0 0.0 0.00 0.14 0.00 97 1006.6
20260506070205 47 66 0.0 0.0 0.00 0.14 0.00 97 1006.6
20260506062205 46 1 0.0 0.0 0.00 0.14 0.00 98 1006.6
20260506061705 46 1 0.0 0.9 0.00 0.15 0.00 98 1006.6
20260506061205 46 1 0.0 0.9 0.00 0.15 0.00 98 1006.7
20260506060705 45 1 0.0 0.9 0.00 0.15 0.00 98 1006.8
20260506051205 43 46 0.0 1.7 0.00 0.15 0.00 97 1006.9
20260506050705 43 264 0.0 0.0 0.00 0.15 0.00 97 1006.8
20260506050205 43 264 0.0 0.0 0.00 0.15 0.00 97 1006.8
20260506044705 42 254 0.0 0.9 0.00 0.15 0.00 97 1006.9
20260506044205 42 254 0.0 0.9 0.00 0.15 0.00 97 1007.0
20260506043705 42 254 0.0 1.7 0.00 0.15 0.00 97 1007.0
20260506043206 42 254 0.0 1.7 0.00 0.15 0.00 97 1007.1
20260506042705 42 254 0.0 1.7 0.00 0.15 0.00 97 1007.1
20260506041705 42 254 0.0 0.9 0.00 0.15 0.00 97 1007.0
20260506041205 42 254 0.0 1.7 0.00 0.15 0.00 97 1007.1
20260506040705 42 254 0.0 1.7 0.00 0.15 0.00 97 1007.2
20260506040205 42 254 0.0 1.7 0.00 0.15 0.00 97 1007.2
20260506035705 42 313 0.0 1.7 0.00 0.15 0.00 97 1007.2
20260506035204 42 253 0.0 1.7 0.00 0.15 0.00 97 1007.4
20260506034205 42 314 0.0 0.9 0.00 0.15 0.00 97 1007.5
20260506033704 42 314 0.0 0.9 0.00 0.15 0.00 97 1007.5
20260506033205 42 314 0.0 0.0 0.00 0.15 0.00 97 1007.5
20260506032205 42 314 0.0 0.0 0.00 0.15 0.00 96 1007.5
20260506031705 42 314 0.0 1.7 0.00 0.15 0.00 97 1007.4
20260506031205 42 314 0.0 1.7 0.00 0.15 0.00 97 1007.4
20260506030205 42 314 0.0 1.7 0.00 0.15 0.00 97 1007.5
20260506025705 42 314 0.0 1.7 0.00 0.15 0.00 97 1007.6
20260506025206 42 314 0.0 1.7 0.00 0.15 0.00 97 1007.8
20260506024705 42 314 0.0 0.9 0.00 0.15 0.00 97 1007.8
20260506024205 42 314 0.0 0.9 0.00 0.15 0.00 97 1007.8
20260506023726 42 314 0.0 0.9 0.00 0.15 0.00 97 1007.8
20260506023205 42 314 0.0 1.7 0.00 0.15 0.00 97 1007.9
20260506022206 42 314 0.0 1.7 0.00 0.15 0.00 96 1008.1
20260506021705 43 314 0.9 1.7 0.00 0.15 0.00 96 1008.1
20260506021205 43 314 0.0 1.7 0.00 0.15 0.00 97 1008.1
20260506020705 43 314 0.0 0.0 0.00 0.15 0.00 97 1008.1
20260506020205 43 314 0.0 0.0 0.00 0.15 0.00 97 1008.0
20260506015705 43 314 0.0 1.7 0.00 0.15 0.00 97 1008.1
20260506015205 43 314 0.0 1.7 0.00 0.15 0.00 97 1008.1
20260506014706 43 314 0.0 0.9 0.00 0.15 0.00 97 1008.2
20260506013705 43 314 0.0 1.7 0.00 0.15 0.00 97 1008.2
20260506013205 43 314 0.0 1.7 0.00 0.15 0.00 97 1008.3
20260506012705 43 314 0.0 2.6 0.00 0.15 0.00 97 1008.4
20260506012205 43 314 0.9 2.6 0.00 0.15 0.00 97 1008.4
20260506011705 43 314 0.9 2.6 0.00 0.15 0.00 97 1008.6
20260506011205 43 314 0.0 1.7 0.00 0.15 0.00 97 1008.6
20260506010706 43 306 0.0 0.9 0.00 0.15 0.00 97 1008.9
20260506010205 43 306 0.0 1.7 0.00 0.15 0.00 97 1008.8
20260506005706 43 306 0.0 1.7 0.00 0.15 0.00 97 1008.4
20260506005206 43 306 0.0 1.7 0.00 0.15 0.00 97 1008.6
20260506004705 43 306 0.0 0.0 0.00 0.15 0.00 97 1008.7
20260506004205 42 306 0.0 0.0 0.00 0.15 0.00 96 1008.8
20260506003705 42 306 0.0 0.0 0.00 0.15 0.00 96 1008.7
20260506002705 42 306 0.0 0.0 0.00 0.15 0.00 96 1008.8
20260506002206 42 306 0.0 0.0 0.00 0.15 0.00 96 1008.7
20260506001705 42 306 0.0 0.0 0.00 0.15 0.00 96 1008.8
20260506000705 42 306 0.0 0.9 0.00 0.15 0.00 96 1009.0
20260506000205 43 306 0.0 0.9 0.00 0.15 0.00 96 1009.0
20260505235705 43 306 0.0 1.7 0.00 0.15 0.00 96 1009.0
20260505235204 43 306 0.0 1.7 0.00 0.15 0.00 96 1009.0
20260505234732 43 306 0.0 1.7 0.00 0.15 0.00 96 1009.1
20260505234205 43 306 0.0 0.0 0.00 0.15 0.00 96 1009.2
20260505233704 43 306 0.0 0.0 0.00 0.15 0.00 96 1009.2
20260505232722 43 306 0.0 0.0 0.00 0.15 0.00 95 1009.3
20260505231705 43 306 0.0 0.0 0.00 0.15 0.00 95 1009.3
20260505231205 43 306 0.0 0.0 0.00 0.15 0.00 95 1009.3
20260505230705 43 306 0.0 0.9 0.00 0.15 0.00 95 1009.4
20260505230205 43 306 0.0 1.7 0.00 0.15 0.00 95 1009.5
20260505225705 43 306 0.0 1.7 0.00 0.15 0.00 95 1009.5
20260505225205 43 306 0.0 1.7 0.00 0.15 0.00 95 1009.4
20260505224705 44 306 0.0 1.7 0.00 0.15 0.00 95 1009.4
20260505224205 44 306 0.0 0.9 0.00 0.15 0.00 95 1009.5
20260505223705 44 306 0.0 0.9 0.00 0.15 0.00 95 1009.5
20260505223205 44 306 0.0 0.9 0.00 0.15 0.00 95 1009.5
20260505222706 44 306 0.0 0.0 0.00 0.15 0.00 94 1009.4
20260505222205 44 306 0.0 0.0 0.00 0.15 0.00 94 1009.4
20260505221704 44 306 0.0 1.7 0.00 0.15 0.00 94 1009.3
20260505215705 45 274 0.0 3.5 0.00 0.15 0.15 94 1009.4
20260505215205 46 61 0.9 3.5 0.00 0.15 0.15 94 1009.4
20260505214717 46 41 0.9 2.6 0.00 0.15 0.15 94 1009.5
20260505214205 46 68 0.0 0.0 0.00 0.15 0.15 94 1009.5
20260505213205 46 143 0.0 0.9 0.01 0.15 0.15 94 1009.6
20260505212708 47 143 0.0 0.9 0.01 0.15 0.15 94 1009.6
20260505212205 47 143 0.0 0.9 0.01 0.15 0.15 94 1009.6
20260505211705 47 143 0.0 0.9 0.01 0.15 0.15 94 1009.6
20260505211205 47 205 0.0 3.5 0.01 0.15 0.15 94 1009.7
20260505210205 47 205 1.7 3.5 0.01 0.15 0.15 94 1009.6
20260505205205 47 259 0.9 3.5 0.01 0.15 0.15 94 1009.7
20260505204706 47 217 0.9 4.3 0.01 0.15 0.15 94 1009.6
20260505204205 47 218 0.9 4.3 0.00 0.14 0.14 94 1009.6
20260505203705 47 231 1.7 4.3 0.00 0.14 0.14 93 1009.6
20260505203205 47 250 1.7 4.3 0.00 0.14 0.14 93 1009.6
20260505202705 47 234 1.7 4.3 0.00 0.14 0.14 93 1009.5
20260505202205 48 239 0.9 5.2 0.00 0.14 0.14 93 1009.5
20260505201705 48 163 0.9 5.2 0.00 0.14 0.14 93 1009.5